Location: eljas
(40.1958°N, 6.8661°W)
Time: 22:30:26
(UTC+02:00)

Amateur Radio Satellites - All Passes

Search period start: 28 July 2014 22:00
Search period end: 29 July 2014 22:00
Location: eljas, 40.1958°N, 6.8661°W

Satellite Date Start Highest point End Downlink Frequencies (MHz)
Time Altitude Azimuth
SO-50 28 Jul 22:04:40 22:08:13 20° 44° (NE) 22:11:48 436.795 FM
RS-15 28 Jul 22:09:35 22:18:43 29° 31° (NNE) 22:28:00 29.354 - 29.394 USB, Beacon 29.352 USB
HO-68 28 Jul 22:12:06 22:19:05 58° 69° (ENE) 22:26:05 435.675 MHz FM
Oscar 11 28 Jul 22:13:19 22:15:30 14° 64° (ENE) 22:17:41 145.825 FM, Beacon 2401.500 USB
MaSat-1 28 Jul 22:20:06 22:23:15 23° 103° (ESE) 22:26:48 437.345 MHz
STRAND 1 28 Jul 22:48:26 22:51:30 16° 298° (WNW) 22:54:33 ?
UKube-1 28 Jul 23:01:00 23:05:23 85° 257° (WSW) 23:09:47 145.840 MHz, 145.915 MHz
SO-50 28 Jul 23:44:27 23:49:08 58° 242° (WSW) 23:53:51 436.795 FM
Oscar 11 28 Jul 23:47:01 23:51:13 54° 260° (W) 23:55:27 145.825 FM, Beacon 2401.500 USB
MaSat-1 28 Jul 23:56:35 00:00:20 32° 305° (NW) 00:04:36 437.345 MHz
HO-68 29 Jul 00:01:22 00:07:08 26° 266° (W) 00:12:57 435.675 MHz FM
FUNcube-1 29 Jul 00:06:55 00:11:16 89° 77° (ENE) 00:15:32 145.950 - 145.970 MHz USB
UOSAT-12 29 Jul 00:08:27 00:12:18 24° 46° (NE) 00:16:06 437.025 FM, 437.400 FM
ISS 29 Jul 00:16:40 00:18:32 14° 130° (SE) 00:20:25 145.800 FM
RS-15 29 Jul 00:21:52 00:32:59 82° 58° (ENE) 00:44:30 29.354 - 29.394 USB, Beacon 29.352 USB
AO-40 29 Jul 01:07:10 06:50:04 41° 182° (S) 12:02:57 Beacon 2401.320
Sapphire 29 Jul 01:42:33 01:46:55 26° 108° (ESE) 01:51:18 437.095 MHz 1200 baud AX-25 AFSK
UOSAT-12 29 Jul 01:48:09 01:52:39 45° 244° (WSW) 01:57:05 437.025 FM, 437.400 FM
ISS 29 Jul 01:51:35 01:54:53 62° 326° (NW) 01:58:13 145.800 FM
PCSat 29 Jul 02:14:55 02:20:09 54° 113° (ESE) 02:25:26 145.825 MHz
RS-15 29 Jul 02:35:43 02:44:06 26° 257° (WSW) 02:52:47 29.354 - 29.394 USB, Beacon 29.352 USB
Oscar 16 29 Jul 02:40:51 02:42:30 11° 89° (E) 02:44:09 437.025 USB, Beacon 2401.1428
AO-27 29 Jul 03:19:52 03:21:47 12° 90° (E) 03:23:41 436.795 MHz FM
Uribyol 2 29 Jul 03:20:03 03:22:13 13° 90° (E) 03:24:24 436.500 FM
Sapphire 29 Jul 03:24:56 03:30:04 44° 305° (NW) 03:35:15 437.095 MHz 1200 baud AX-25 AFSK
ISS 29 Jul 03:29:58 03:32:09 16° 344° (NNW) 03:34:20 145.800 FM
Oscar 19 29 Jul 03:48:57 03:54:01 53° 100° (E) 03:59:04 437.125 CW, 437.150 USB
JAS-1B 29 Jul 03:51:53 03:59:05 25° 87° (E) 04:05:27 435.800 - 435.900 CW/SSB
PCSat 29 Jul 03:59:35 04:03:53 24° 312° (NW) 04:08:14 145.825 MHz
AO-Echo 29 Jul 04:08:11 04:12:54 38° 97° (E) 04:17:26 ?
Oscar 16 29 Jul 04:17:14 04:22:25 80° 285° (WNW) 04:27:35 437.025 USB, Beacon 2401.1428
OPAL 29 Jul 04:23:32 04:26:52 19° 61° (ENE) 04:30:14 ?
ITAMSAT 1 29 Jul 04:37:30 04:42:41 70° 102° (ESE) 04:47:49 435.822 SSB
TMSAT-1 29 Jul 04:53:43 04:58:20 30° 96° (E) 05:02:54 436.925 FM
AO-27 29 Jul 04:56:40 05:01:51 77° 286° (WNW) 05:07:01 436.795 MHz FM
Uribyol 2 29 Jul 04:57:04 05:02:13 73° 286° (WNW) 05:07:21 436.500 FM
AO-7 29 Jul 05:05:27 05:08:00 12° 87° (E) 05:10:32 29.400 - 29.500 MHz
ISS 29 Jul 05:08:31 05:09:57 12° 5° (N) 05:11:23 145.800 FM
Gurwin Techsat 1B 29 Jul 05:17:28 05:22:47 69° 102° (ESE) 05:28:03 435.225 FM
Oscar 19 29 Jul 05:29:22 05:32:56 19° 297° (WNW) 05:36:31 437.125 CW, 437.150 USB
JAS-1B 29 Jul 05:41:05 05:50:31 73° 289° (WNW) 05:58:31 435.800 - 435.900 CW/SSB
AO-Echo 29 Jul 05:47:23 05:51:26 24° 294° (WNW) 05:55:22 ?
Oscar 16 29 Jul 06:00:31 06:00:54 10° 302° (WNW) 06:01:16 437.025 USB, Beacon 2401.1428
OPAL 29 Jul 06:00:32 06:05:21 53° 258° (WSW) 06:10:12 ?
Uosat F 29 Jul 06:05:02 06:09:26 30° 96° (E) 06:13:48 435.120 FM
ITAMSAT 1 29 Jul 06:18:42 06:21:34 15° 299° (WNW) 06:24:26 435.822 SSB
TMSAT-1 29 Jul 06:33:31 06:38:13 33° 292° (WNW) 06:42:54 436.925 FM
ISS 29 Jul 06:44:43 06:47:35 25° 25° (NNE) 06:50:27 145.800 FM
STRAND 1 29 Jul 06:48:30 06:49:51 11° 58° (ENE) 06:51:11 ?
AO-7 29 Jul 06:53:49 07:02:09 70° 105° (ESE) 07:10:24 29.400 - 29.500 MHz
Gurwin Techsat 1B 29 Jul 06:59:04 07:02:08 16° 299° (WNW) 07:05:13 435.225 FM
PANSAT 29 Jul 07:08:36 07:10:15 12° 171° (S) 07:11:54 not established
JAS-1B 29 Jul 07:33:27 07:39:11 18° 311° (NW) 07:44:32 435.800 - 435.900 CW/SSB
KITSAT 1 29 Jul 07:43:24 07:51:18 60° 114° (ESE) 07:59:13 435.175 FM
Uosat F 29 Jul 07:43:48 07:48:09 30° 293° (WNW) 07:52:29 435.120 FM
JAS-2 29 Jul 07:44:02 07:48:18 21° 90° (E) 07:52:17 435.800 - 435.900 CW/SSB, 435.910 FM
MaSat-1 29 Jul 08:14:46 08:20:00 55° 61° (ENE) 08:24:57 437.345 MHz
ISS 29 Jul 08:21:11 08:24:27 48° 222° (SW) 08:27:41 145.800 FM
STRAND 1 29 Jul 08:23:04 08:28:13 86° 75° (ENE) 08:33:23 ?
Hamsat 29 Jul 08:35:17 08:39:37 87° 283° (WNW) 08:43:57 145.90 MHz
AO-7 29 Jul 08:47:36 08:54:14 28° 304° (NW) 09:00:51 29.400 - 29.500 MHz
PANSAT 29 Jul 08:47:39 08:49:43 14° 184° (S) 08:51:47 not established
SO-67 29 Jul 09:06:57 09:10:00 28° 96° (E) 09:13:02 435.3500 MHz FM
Saudisat 1A 29 Jul 09:15:19 09:19:41 66° 119° (ESE) 09:24:05 436.775 MHz
JAS-2 29 Jul 09:28:06 09:33:50 49° 290° (WNW) 09:39:00 435.800 - 435.900 CW/SSB, 435.910 FM
KITSAT 1 29 Jul 09:39:52 09:47:06 35° 314° (NW) 09:54:23 435.175 FM
MaSat-1 29 Jul 09:53:14 09:56:51 19° 259° (W) 10:00:18 437.345 MHz
STRAND 1 29 Jul 10:07:16 10:08:01 10° 271° (W) 10:08:47 ?
Sapphire 29 Jul 10:30:34 10:34:42 22° 47° (NE) 10:38:48 437.095 MHz 1200 baud AX-25 AFSK
SO-67 29 Jul 10:40:43 10:42:50 16° 292° (WNW) 10:44:57 435.3500 MHz FM
UKube-1 29 Jul 10:51:05 10:53:56 17° 93° (E) 10:56:45 145.840 MHz, 145.915 MHz
Saudisat 1A 29 Jul 10:56:51 10:59:42 17° 318° (NW) 11:02:34 436.775 MHz
PCSat 29 Jul 11:03:26 11:08:32 39° 54° (NE) 11:13:35 145.825 MHz
HO-68 29 Jul 11:27:45 11:34:51 64° 103° (ESE) 11:41:54 435.675 MHz FM
Oscar 11 29 Jul 11:35:30 11:39:13 27° 96° (E) 11:42:56 145.825 FM, Beacon 2401.500 USB
KITSAT 1 29 Jul 11:42:39 11:45:29 12° 341° (NNW) 11:48:19 435.175 FM
FUNcube-1 29 Jul 11:57:42 12:00:26 17° 93° (E) 12:03:10 145.950 - 145.970 MHz USB
Sapphire 29 Jul 12:13:11 12:18:33 62° 245° (WSW) 12:23:52 437.095 MHz 1200 baud AX-25 AFSK
UKube-1 29 Jul 12:26:13 12:30:19 41° 289° (WNW) 12:34:23 145.840 MHz, 145.915 MHz
PCSat 29 Jul 12:47:09 12:51:47 29° 251° (WSW) 12:56:22 145.825 MHz
Oscar 11 29 Jul 13:11:44 13:15:18 25° 291° (WNW) 13:18:52 145.825 FM, Beacon 2401.500 USB
HO-68 29 Jul 13:16:24 13:22:00 26° 301° (WNW) 13:27:36 435.675 MHz FM
FUNcube-1 29 Jul 13:33:07 13:36:58 37° 288° (WNW) 13:40:52 145.950 - 145.970 MHz USB
KITSAT 1 29 Jul 13:43:52 13:45:33 11° 14° (NNE) 13:47:14 435.175 FM
Oscar 16 29 Jul 13:56:41 13:59:59 18° 63° (ENE) 14:03:18 437.025 USB, Beacon 2401.1428
SO-50 29 Jul 13:58:53 14:03:12 53° 118° (ESE) 14:07:37 436.795 FM
ITAMSAT 1 29 Jul 14:19:07 14:21:23 13° 60° (ENE) 14:23:40 435.822 SSB
JAS-1B 29 Jul 14:34:47 14:41:40 25° 54° (NE) 14:48:56 435.800 - 435.900 CW/SSB
AO-27 29 Jul 14:36:47 14:40:25 20° 63° (ENE) 14:44:04 436.795 MHz FM
Uribyol 2 29 Jul 14:36:51 14:40:33 20° 64° (ENE) 14:44:15 436.500 FM
RS-15 29 Jul 14:44:18 14:55:04 57° 113° (ESE) 15:05:35 29.354 - 29.394 USB, Beacon 29.352 USB
Gurwin Techsat 1B 29 Jul 15:01:35 15:04:06 14° 60° (ENE) 15:06:37 435.225 FM
Oscar 19 29 Jul 15:05:18 15:10:23 73° 74° (ENE) 15:15:30 437.125 CW, 437.150 USB
AO-Echo 29 Jul 15:19:57 15:25:01 48° 71° (ENE) 15:30:08 ?
Oscar 16 29 Jul 15:33:50 15:38:51 58° 259° (W) 15:43:55 437.025 USB, Beacon 2401.1428
KITSAT 1 29 Jul 15:37:27 15:44:18 29° 42° (NE) 15:51:05 435.175 FM
SO-50 29 Jul 15:40:46 15:44:05 20° 316° (NW) 15:47:27 436.795 FM
ITAMSAT 1 29 Jul 15:54:56 16:00:10 83° 257° (WSW) 16:05:24 435.822 SSB
UOSAT-12 29 Jul 15:58:22 16:02:53 62° 119° (ESE) 16:07:31 437.025 FM, 437.400 FM
AO-7 29 Jul 16:02:52 16:08:30 21° 51° (NE) 16:14:07 29.400 - 29.500 MHz
TMSAT-1 29 Jul 16:13:50 16:18:50 44° 70° (ENE) 16:23:51 436.925 FM
AO-27 29 Jul 16:14:25 16:19:30 54° 260° (W) 16:24:38 436.795 MHz FM
Uribyol 2 29 Jul 16:14:35 16:19:38 51° 260° (W) 16:24:42 436.500 FM
JAS-1B 29 Jul 16:21:54 16:30:45 90° 74° (ENE) 16:40:42 435.800 - 435.900 CW/SSB
Gurwin Techsat 1B 29 Jul 16:38:02 16:43:21 81° 257° (WSW) 16:48:42 435.225 FM
Oscar 19 29 Jul 16:48:08 16:50:14 12° 270° (W) 16:52:22 437.125 CW, 437.150 USB
RS-15 29 Jul 16:57:15 17:07:41 45° 316° (NW) 17:18:03 29.354 - 29.394 USB, Beacon 29.352 USB
AO-Echo 29 Jul 17:00:03 17:04:00 21° 267° (W) 17:07:59 ?
Uosat F 29 Jul 17:17:40 17:22:21 40° 70° (ENE) 17:27:03 435.120 FM
KITSAT 1 29 Jul 17:32:24 17:40:28 75° 244° (WSW) 17:48:28 435.175 FM
UOSAT-12 29 Jul 17:40:10 17:43:27 19° 317° (NW) 17:46:47 437.025 FM, 437.400 FM
Saudisat 1A 29 Jul 17:42:41 17:46:56 44° 53° (NE) 17:51:08 436.775 MHz
AO-7 29 Jul 17:51:46 18:00:08 87° 71° (ENE) 18:08:33 29.400 - 29.500 MHz
TMSAT-1 29 Jul 17:54:50 17:58:55 23° 266° (W) 18:03:02 436.925 FM
JAS-2 29 Jul 17:56:50 18:00:19 14° 56° (NE) 18:03:42 435.800 - 435.900 CW/SSB, 435.910 FM
OPAL 29 Jul 18:10:43 18:15:31 41° 101° (E) 18:20:20 ?
JAS-1B 29 Jul 18:16:11 18:22:28 21° 275° (W) 18:29:15 435.800 - 435.900 CW/SSB
Uosat F 29 Jul 18:57:18 19:01:15 23° 265° (W) 19:05:13 435.120 FM
RS-15 29 Jul 19:16:32 19:23:57 20° 348° (NNW) 19:31:24 29.354 - 29.394 USB, Beacon 29.352 USB
Saudisat 1A 29 Jul 19:23:06 19:26:11 19° 249° (WSW) 19:29:15 436.775 MHz
Hamsat 29 Jul 19:28:02 19:32:08 60° 75° (ENE) 19:36:17 145.90 MHz
KITSAT 1 29 Jul 19:31:13 19:34:27 13° 261° (W) 19:37:42 435.175 FM
JAS-2 29 Jul 19:36:28 19:44:12 68° 73° (ENE) 19:51:27 435.800 - 435.900 CW/SSB, 435.910 FM
AO-7 29 Jul 19:48:23 19:53:49 19° 269° (W) 19:59:18 29.400 - 29.500 MHz
OPAL 29 Jul 19:50:07 19:54:09 24° 297° (WNW) 19:58:13 ?
STRAND 1 29 Jul 20:34:46 20:39:14 30° 96° (E) 20:43:39 ?
Oscar 10/S400 29 Jul 20:51:38 21:07:54 32° 143° (SE) 21:33:39 145.825 - 145.975 CW/USB, Beacon 145.810 USB
Hamsat 29 Jul 21:07:43 21:08:30 10° 270° (W) 21:09:16 145.90 MHz
SO-67 29 Jul 21:12:03 21:15:24 47° 261° (W) 21:18:47 435.3500 MHz FM
JAS-2 29 Jul 21:23:30 21:29:33 25° 268° (W) 21:35:24 435.800 - 435.900 CW/SSB, 435.910 FM
RS-15 29 Jul 21:33:23 21:41:52 24° 25° (NNE) 21:50:28 29.354 - 29.394 USB, Beacon 29.352 USB
UKube-1 29 Jul 21:46:51 21:49:21 15° 64° (ENE) 21:51:52 145.840 MHz, 145.915 MHz
